Location: Bratislava
(48.1500°N, 17.1170°E)
Time: 03:08:12
(UTC+02:00)

Amateur Radio Satellites - All Passes

Search period start: 25 May 2017 02:38
Search period end: 26 May 2017 02:38
Location: Bratislava, 48.1500°N, 17.1170°E

Satellite Date Start Highest point End Downlink Frequencies (MHz)
Time Altitude Azimuth
AO-7 25 May 02:39:58 02:43:49 14° 84° (E) 02:47:39 .
YUBILEINY 25 May 02:40:51 02:49:25 59° 286° (WNW) 02:58:06 435.215
RS-15 25 May 02:43:01 02:54:46 60° 116° (ESE) 03:06:46 29.354- 29.394
UKube-1 25 May 02:43:36 02:45:36 13° 271° (W) 02:47:36 .
ISS 25 May 02:44:00 02:47:18 88° 33° (NNE) 02:50:35 437.550
BUGSAT 1 25 May 02:48:55 02:52:14 24° 295° (WNW) 02:55:34 437.445
SO-50 25 May 02:55:09 02:56:30 11° 348° (NNW) 02:57:51 436.795
BEESAT 25 May 02:57:28 03:02:14 86° 257° (WSW) 03:07:03 436.000
MOZHAYETS 4 25 May 02:59:42 03:04:12 56° 71° (ENE) 03:08:45
Oscar 19 25 May 03:14:41 03:19:40 48° 292° (WNW) 03:24:35 437.125/150
PCSat 25 May 03:17:43 03:22:20 27° 38° (NE) 03:26:57 145.827
CUBESAT XI-V 25 May 03:40:13 03:44:19 30° 65° (ENE) 03:48:25 437.345
ITUPSAT 1 25 May 04:01:20 04:05:12 24° 267° (W) 04:09:06 437.325
KKS-1 25 May 04:09:05 04:13:20 48° 69° (ENE) 04:17:36 437.445
ITAMSAT 1 25 May 04:11:08 04:16:17 56° 101° (E) 04:21:24 435.822/435.867
Tancredo 1 25 May 04:11:10 04:12:59 15° 223° (SW) 04:14:48 437.200
Gurwin Techsat 1B 25 May 04:14:29 04:18:55 27° 298° (WNW) 04:23:19 435.225
O/OREOS (USA 219) 25 May 04:17:30 04:21:41 36° 107° (ESE) 04:25:53 437.305
ISS 25 May 04:21:01 04:23:28 20° 221° (SW) 04:25:54 437.550
AO-7 25 May 04:29:58 04:38:17 64° 105° (ESE) 04:46:34 .
SO-50 25 May 04:37:32 04:39:01 11° 13° (NNE) 04:40:32 436.795
MOZHAYETS 4 25 May 04:38:29 04:41:43 19° 270° (W) 04:44:58
BEESAT 25 May 04:39:14 04:40:44 11° 274° (W) 04:42:15 436.000
YUBILEINY 25 May 04:43:48 04:48:33 15° 312° (NW) 04:53:20 435.215
STARS 25 May 04:46:08 04:50:21 51° 70° (ENE) 04:54:35 437.465
RS-15 25 May 04:55:32 05:07:35 58° 322° (NW) 05:19:48 29.354- 29.394
PCSat 25 May 05:00:49 05:06:15 71° 240° (WSW) 05:11:39 145.827
AO-85 25 May 05:07:53 05:11:34 31° 119° (ESE) 05:15:07 145.980
CUBESAT XI-V 25 May 05:17:15 05:21:36 36° 264° (W) 05:25:58 437.345
DOVE 4 25 May 05:36:08 05:38:28 15° 90° (E) 05:40:49 437.250
KKS-1 25 May 05:46:51 05:50:09 20° 268° (W) 05:53:27 437.445
STRAND 1 25 May 05:49:53 05:53:12 18° 57° (ENE) 05:56:33 437.568
ITAMSAT 1 25 May 05:51:15 05:55:24 24° 300° (WNW) 05:59:32 435.822/435.867
CUTE-I 25 May 05:52:36 05:55:17 14° 87° (E) 05:57:57 437.470
BEESAT 3 25 May 05:53:25 05:56:53 30° 117° (ESE) 06:00:24 437.485
LilacSat-2 25 May 05:56:50 05:58:50 14° 89° (E) 06:00:50 437.200
O/OREOS (USA 219) 25 May 05:57:00 06:01:08 32° 306° (NW) 06:05:15 437.305
SO-50 25 May 06:17:02 06:20:58 28° 37° (NE) 06:24:53 436.795
AO-7 25 May 06:23:13 06:30:40 38° 306° (NW) 06:38:06 .
STARS 25 May 06:23:54 06:27:00 19° 268° (W) 06:30:05 437.465
XW-2D 25 May 06:32:35 06:36:04 31° 96° (E) 06:39:31 145.860 - 145.880
XW-2B 25 May 06:40:23 06:44:00 36° 97° (E) 06:47:34 145.730 - 145.750
PCSat 25 May 06:46:56 06:48:40 11° 258° (WSW) 06:50:23 145.827
AO-85 25 May 06:48:10 06:51:54 34° 317° (NW) 06:55:33 145.980
XW-2C 25 May 06:53:49 06:57:37 53° 100° (E) 07:01:23 145.795 - 145.815
XW-2F 25 May 06:54:24 06:58:11 51° 100° (E) 07:01:55 145.980 - 146.000
NUDT-PHONESAT 25 May 06:59:54 07:03:35 48° 99° (E) 07:07:14 437.300
BEESAT 2 25 May 07:05:24 07:09:21 59° 122° (ESE) 07:13:19 435.950
KAITUO 1B 25 May 07:05:28 07:09:16 57° 100° (E) 07:13:00 145.475/437.950
RS-15 25 May 07:12:10 07:23:20 37° 354° (N) 07:34:22 29.354- 29.394
DOVE 4 25 May 07:12:30 07:16:35 58° 287° (WNW) 07:20:42 437.250
STRAND 1 25 May 07:26:42 07:31:48 79° 257° (WSW) 07:36:56 437.568
LilacSat-2 25 May 07:29:39 07:33:29 57° 287° (WNW) 07:37:17 437.200
BEESAT 3 25 May 07:30:40 07:34:23 37° 317° (NW) 07:38:10 437.485
CUTE-I 25 May 07:30:43 07:36:05 89° 105° (ESE) 07:41:26 437.470
M-CUBED/EXP-1 PRIME 25 May 07:39:02 07:43:08 52° 66° (ENE) 07:46:58 437.505
SEEDS 25 May 07:39:16 07:42:10 18° 90° (E) 07:45:04 437.485
SO-50 25 May 07:57:17 08:01:42 54° 237° (WSW) 08:06:06 436.795
XW-2A 25 May 08:01:55 08:05:08 36° 98° (E) 08:08:21 145.665 - 145.685
FO-29 25 May 08:02:40 08:04:09 11° 49° (NE) 08:05:41 435.910
XW-2D 25 May 08:06:59 08:10:08 24° 294° (WNW) 08:13:16 145.860 - 145.880
HO-68 25 May 08:10:49 08:17:54 55° 101° (E) 08:24:56 435.675
XW-2B 25 May 08:15:02 08:17:59 21° 295° (WNW) 08:20:55 145.730 - 145.750
UNISAT 6 25 May 08:17:51 08:18:32 10° 55° (NE) 08:19:12 437.425
AO-7 25 May 08:18:06 08:21:06 12° 330° (NNW) 08:24:05 .
CUTE 1.7 + AOD 2 25 May 08:20:48 08:25:06 71° 102° (ESE) 08:29:20 437.475
AO-73 25 May 08:22:45 08:25:11 14° 88° (E) 08:27:36 145.935
XW-2C 25 May 08:29:03 08:31:25 16° 298° (WNW) 08:33:47 145.795 - 145.815
XW-2F 25 May 08:29:32 08:31:56 16° 298° (WNW) 08:34:20 145.980 - 146.000
AO-85 25 May 08:33:05 08:33:27 10° 340° (NNW) 08:33:50 145.980
NUDT-PHONESAT 25 May 08:34:43 08:37:08 16° 297° (WNW) 08:39:33 437.300
ZACube-1 25 May 08:34:48 08:38:10 20° 91° (E) 08:41:34 437.345
CUBEBUG 2 25 May 08:37:52 08:42:20 55° 100° (E) 08:46:54 437.445
KAITUO 1B 25 May 08:40:41 08:42:50 15° 299° (WNW) 08:44:59 145.475/437.950
BEESAT 2 25 May 08:44:10 08:47:25 23° 324° (NW) 08:50:43 435.950
AAUSAT CUBESAT 2 25 May 08:44:15 08:48:11 40° 97° (E) 08:52:04 437.432
UWE-3 25 May 08:52:26 08:56:51 48° 99° (E) 09:01:20 435.000/436.395/437.385
PRISM 25 May 08:58:10 09:01:47 30° 66° (ENE) 09:05:24 437.425
STRAND 1 25 May 09:10:18 09:11:49 11° 275° (W) 09:13:21 437.568
BEESAT 3 25 May 09:11:56 09:13:06 11° 339° (NNW) 09:14:16 437.485
CUTE-I 25 May 09:12:07 09:15:26 17° 305° (NW) 09:18:45 437.470
SEEDS 25 May 09:14:03 09:18:09 50° 289° (WNW) 09:22:13 437.485
M-CUBED/EXP-1 PRIME 25 May 09:14:55 09:17:46 17° 261° (W) 09:20:31 437.505
NO-84 25 May 09:18:40 09:22:26 29° 134° (SE) 09:26:05 435.350 FM
TIGRISAT 25 May 09:19:29 09:23:21 34° 67° (ENE) 09:27:18 435.000
DELFI C3 25 May 09:22:44 09:24:03 11° 88° (E) 09:25:23 145.870
RS-15 25 May 09:27:48 09:39:38 47° 28° (NNE) 09:51:01 29.354- 29.394
Oscar 11 25 May 09:33:14 09:37:31 52° 100° (E) 09:41:46 .
XW-2A 25 May 09:35:20 09:37:38 17° 295° (WNW) 09:39:57 145.665 - 145.685
FO-29 25 May 09:43:03 09:48:10 64° 71° (ENE) 09:53:28 435.910
UNISAT 6 25 May 09:50:10 09:54:25 75° 74° (ENE) 09:58:47 437.425
EO-88 25 May 09:53:33 09:56:02 17° 92° (E) 09:58:31 145.990 - 145.960
AO-73 25 May 09:57:22 10:01:54 74° 286° (WNW) 10:06:27 145.935
CUTE 1.7 + AOD 2 25 May 09:58:00 10:00:24 15° 300° (WNW) 10:02:48 437.475
HO-68 25 May 09:58:56 10:05:23 37° 301° (WNW) 10:11:49 435.675
QB50P2 25 May 10:07:32 10:08:53 11° 57° (ENE) 10:10:15 145.880/145.840
ZACube-1 25 May 10:10:19 10:14:43 51° 289° (WNW) 10:19:08 437.345
CUBEBUG 2 25 May 10:15:17 10:18:37 21° 297° (WNW) 10:22:01 437.445
AAUSAT CUBESAT 2 25 May 10:20:11 10:23:25 22° 296° (WNW) 10:26:38 437.432
UWE-3 25 May 10:29:29 10:33:02 23° 296° (WNW) 10:36:37 435.000/436.395/437.385
PRISM 25 May 10:33:25 10:37:02 29° 264° (W) 10:40:40 437.425
EO-79 25 May 10:43:09 10:46:23 22° 64° (ENE) 10:49:39 145.935-145.965
YUBILEINY 25 May 10:50:09 10:56:51 23° 57° (ENE) 11:03:32 435.215
DELFI C3 25 May 10:55:23 10:59:19 70° 287° (WNW) 11:03:13 145.870
NO-84 25 May 10:55:31 10:59:51 69° 331° (NNW) 11:03:57 435.350 FM
TIGRISAT 25 May 10:56:30 11:00:07 26° 266° (W) 11:03:47 435.000
ESTCUBE 1 25 May 11:08:35 11:10:37 13° 88° (E) 11:12:38 437.505/2401.250
Oscar 11 25 May 11:10:10 11:13:18 20° 298° (WNW) 11:16:25 .
AIST 2D 25 May 11:22:59 11:26:30 79° 257° (WSW) 11:30:05 435.315
EO-88 25 May 11:26:25 11:29:54 40° 289° (WNW) 11:33:22 145.990 - 145.960
NANOSAT C BR1 25 May 11:28:34 11:32:38 55° 72° (ENE) 11:36:46 145.865
UNISAT 6 25 May 11:29:52 11:31:43 12° 273° (W) 11:33:34 437.425
FO-29 25 May 11:30:24 11:33:54 18° 271° (W) 11:37:29 435.910
POLYITAN 1 25 May 11:31:16 11:35:25 65° 73° (ENE) 11:39:36 437.675
AO-73 25 May 11:36:06 11:37:20 11° 304° (NW) 11:38:35 145.935
QB50P2 25 May 11:39:47 11:43:59 86° 75° (ENE) 11:48:13 145.880/145.840
DUCHIFAT 1 25 May 11:40:15 11:44:22 66° 73° (ENE) 11:48:32 145.980
RS-15 25 May 11:41:07 11:53:25 81° 236° (WSW) 12:05:06 29.354- 29.394
AO-85 25 May 11:55:20 11:57:57 17° 31° (NNE) 12:00:35 145.980
AO-7 25 May 11:57:07 11:58:45 11° 26° (NNE) 12:00:24 .
BUGSAT 1 25 May 12:06:09 12:09:54 40° 69° (ENE) 12:13:41 437.445
VELOX 1 25 May 12:11:59 12:14:29 15° 90° (E) 12:16:59 145.980
LO-87 25 May 12:15:29 12:19:02 74° 284° (WNW) 12:22:35 145.935 - 145.965
EO-79 25 May 12:17:57 12:21:55 41° 262° (W) 12:25:55 145.935-145.965
SPROUT 25 May 12:19:31 12:22:28 18° 91° (E) 12:25:23 437.525
Gurwin Techsat 1B 25 May 12:20:56 12:24:40 20° 58° (ENE) 12:28:26 435.225
BEESAT 3 25 May 12:29:44 12:31:58 14° 27° (NNE) 12:34:12 437.485
NO-84 25 May 12:34:09 12:37:57 32° 352° (N) 12:41:31 435.350 FM
ESTCUBE 1 25 May 12:43:28 12:48:00 79° 286° (WNW) 12:52:30 437.505/2401.250
O/OREOS (USA 219) 25 May 12:44:55 12:48:17 20° 48° (NE) 12:51:37 437.305
YUBILEINY 25 May 12:46:12 12:55:06 86° 81° (E) 13:03:58 435.215
DX 1 25 May 12:53:28 12:55:51 14° 90° (E) 12:58:14 434.975-435.025
Oscar 19 25 May 12:55:48 13:00:51 54° 69° (ENE) 13:05:56 437.125/150
NANOSAT C BR1 25 May 13:06:08 13:08:43 16° 270° (W) 13:11:20 145.865
POLYITAN 1 25 May 13:09:29 13:11:39 14° 271° (W) 13:13:50 437.675
DUCHIFAT 1 25 May 13:18:27 13:20:30 13° 271° (W) 13:22:34 145.980
QB50P2 25 May 13:19:42 13:20:23 10° 273° (W) 13:21:04 145.880/145.840
AO-85 25 May 13:34:55 13:38:55 83° 52° (NE) 13:43:06 145.980
AO-7 25 May 13:41:55 13:48:57 32° 51° (NE) 13:56:00 .
50 SAT 25 May 13:42:19 13:45:44 69° 102° (ESE) 13:49:07 437.505
BUGSAT 1 25 May 13:42:28 13:45:26 20° 267° (W) 13:48:26 437.445
BEESAT 2 25 May 13:42:33 13:45:42 21° 35° (NE) 13:48:50 435.950
VELOX 1 25 May 13:47:02 13:51:24 65° 287° (WNW) 13:55:43 145.980
SPROUT 25 May 13:54:30 13:58:40 51° 289° (WNW) 14:02:49 437.525
RS-15 25 May 13:55:05 14:03:55 25° 261° (W) 14:12:30 29.354- 29.394
ITAMSAT 1 25 May 13:55:12 13:58:57 21° 58° (ENE) 14:02:43 435.822/435.867
Gurwin Techsat 1B 25 May 13:58:46 14:04:04 74° 256° (WSW) 14:09:25 435.225
BEESAT 3 25 May 14:06:23 14:10:23 59° 48° (NE) 14:14:20 437.485
NO-84 25 May 14:12:34 14:16:17 35° 13° (NNE) 14:19:43 435.350 FM
ESTCUBE 1 25 May 14:22:27 14:24:02 12° 305° (NW) 14:25:38 437.505/2401.250
O/OREOS (USA 219) 25 May 14:23:39 14:28:08 64° 248° (WSW) 14:32:35 437.305
UKube-1 25 May 14:23:57 14:28:17 80° 105° (ESE) 14:32:35 .
DX 1 25 May 14:28:11 14:32:30 66° 288° (WNW) 14:36:46 434.975-435.025
Oscar 19 25 May 14:36:22 14:40:29 24° 268° (W) 14:44:39 437.125/150
YUBILEINY 25 May 14:44:18 14:50:48 24° 283° (WNW) 14:57:19 435.215
MOZHAYETS 4 25 May 14:54:12 14:54:37 10° 85° (E) 14:55:04
BEESAT 25 May 14:54:44 14:58:05 19° 91° (E) 15:01:26 436.000
AO-85 25 May 15:17:01 15:18:46 12° 249° (WSW) 15:20:32 145.980
50 SAT 25 May 15:17:35 15:18:05 10° 300° (WNW) 15:18:35 437.505
BEESAT 2 25 May 15:19:50 15:23:54 71° 235° (SW) 15:27:55 435.950
AO-7 25 May 15:32:47 15:41:04 76° 253° (WSW) 15:49:26 .
ITAMSAT 1 25 May 15:32:47 15:37:56 68° 257° (WSW) 15:43:07 435.822/435.867
Gurwin Techsat 1B 25 May 15:43:32 15:44:56 11° 275° (W) 15:46:21 435.225
BEESAT 3 25 May 15:44:51 15:47:34 18° 247° (WSW) 15:50:15 437.485
NO-84 25 May 15:50:19 15:54:10 78° 216° (SW) 15:57:39 435.350 FM
ITUPSAT 1 25 May 15:56:46 16:01:35 66° 102° (ESE) 16:06:22 437.325
UKube-1 25 May 16:01:32 16:03:43 14° 302° (WNW) 16:05:53 .
MOZHAYETS 4 25 May 16:27:51 16:32:33 81° 103° (ESE) 16:37:12
BEESAT 25 May 16:31:31 16:36:16 60° 289° (WNW) 16:40:58 436.000
LilacSat-2 25 May 16:42:49 16:44:31 13° 60° (ENE) 16:46:12 437.200
DOVE 4 25 May 16:44:27 16:48:09 25° 65° (ENE) 16:51:43 437.250
HO-68 25 May 16:59:37 17:03:31 16° 44° (NE) 17:07:25 435.675
CUBESAT XI-V 25 May 17:09:40 17:14:08 42° 98° (E) 17:18:31 437.345
CUTE-I 25 May 17:17:07 17:21:48 33° 64° (ENE) 17:26:30 437.470
XW-2D 25 May 17:17:16 17:20:28 26° 67° (ENE) 17:23:43 145.860 - 145.880
XW-2B 25 May 17:24:58 17:28:20 30° 68° (ENE) 17:31:44 145.730 - 145.750
NO-84 25 May 17:29:28 17:31:02 12° 234° (SW) 17:32:32 435.350 FM
AO-7 25 May 17:30:12 17:35:16 17° 274° (W) 17:40:22 .
KKS-1 25 May 17:32:30 17:36:53 58° 101° (ESE) 17:41:15 437.445
ITUPSAT 1 25 May 17:35:34 17:38:56 19° 301° (WNW) 17:42:18 437.325
XW-2C 25 May 17:38:15 17:41:52 42° 71° (ENE) 17:45:31 145.795 - 145.815
XW-2F 25 May 17:38:27 17:42:01 40° 71° (ENE) 17:45:39 145.980 - 146.000
NUDT-PHONESAT 25 May 17:42:26 17:45:52 36° 70° (ENE) 17:49:20 437.300
CUTE 1.7 + AOD 2 25 May 17:44:43 17:45:36 11° 56° (NE) 17:46:29 437.475
KAITUO 1B 25 May 17:48:37 17:52:12 43° 71° (ENE) 17:55:50 145.475/437.950
MOZHAYETS 4 25 May 18:06:26 18:09:06 15° 302° (WNW) 18:11:44
STARS 25 May 18:07:45 18:12:06 59° 102° (ESE) 18:16:26 437.465
BEESAT 25 May 18:12:51 18:13:05 10° 308° (NW) 18:13:18 436.000
LilacSat-2 25 May 18:14:25 18:18:15 71° 258° (WSW) 18:22:08 437.200
DOVE 4 25 May 18:21:22 18:25:42 40° 262° (W) 18:29:51 437.250
SEEDS 25 May 18:34:15 18:37:25 21° 63° (ENE) 18:40:36 437.485
XW-2A 25 May 18:36:54 18:39:35 22° 67° (ENE) 18:42:17 145.665 - 145.685
HO-68 25 May 18:42:50 18:49:49 59° 66° (ENE) 18:56:52 435.675
CUBESAT XI-V 25 May 18:47:27 18:51:17 26° 296° (WNW) 18:55:06 437.345
XW-2D 25 May 18:51:16 18:54:36 28° 265° (W) 18:57:57 145.860 - 145.880
CUTE-I 25 May 18:56:47 19:01:46 41° 263° (W) 19:06:46 437.470
XW-2B 25 May 18:59:25 19:02:33 24° 266° (W) 19:05:44 145.730 - 145.750
KKS-1 25 May 19:09:58 19:13:03 19° 299° (WNW) 19:16:07 437.445
XW-2C 25 May 19:13:40 19:16:16 17° 269° (W) 19:18:54 145.795 - 145.815
XW-2F 25 May 19:13:42 19:16:21 18° 268° (W) 19:19:02 145.980 - 146.000
CUTE 1.7 + AOD 2 25 May 19:16:23 19:20:40 77° 74° (ENE) 19:24:59 437.475
NUDT-PHONESAT 25 May 19:17:11 19:19:54 19° 268° (W) 19:22:40 437.300
AO-73 25 May 19:21:47 19:24:30 17° 60° (ENE) 19:27:16 145.935
KAITUO 1B 25 May 19:23:58 19:26:27 17° 269° (W) 19:28:56 145.475/437.950
STRAND 1 25 May 19:33:51 19:38:13 27° 94° (E) 19:42:33 437.568
ZACube-1 25 May 19:34:07 19:37:28 23° 64° (ENE) 19:40:54 437.345
AAUSAT CUBESAT 2 25 May 19:37:23 19:41:20 42° 70° (ENE) 19:45:17 437.432
CUBEBUG 2 25 May 19:39:24 19:43:32 66° 73° (ENE) 19:47:46 437.445
STARS 25 May 19:45:03 19:48:02 18° 300° (WNW) 19:51:00 437.465
PCSat 25 May 19:45:43 19:50:56 51° 117° (ESE) 19:56:12 145.827
UWE-3 25 May 19:52:46 19:56:52 56° 72° (ENE) 20:01:05 435.000/436.395/437.385
SEEDS 25 May 20:08:42 20:12:48 46° 261° (W) 20:16:57 437.485
XW-2A 25 May 20:09:25 20:12:14 25° 265° (W) 20:15:07 145.665 - 145.685
DELFI C3 25 May 20:11:45 20:13:26 12° 59° (ENE) 20:15:08 145.870
Oscar 11 25 May 20:31:02 20:35:19 62° 73° (ENE) 20:39:38 .
HO-68 25 May 20:31:35 20:37:54 33° 265° (W) 20:44:18 435.675
EO-88 25 May 20:35:26 20:37:24 14° 62° (ENE) 20:39:23 145.990 - 145.960
Tancredo 1 25 May 20:45:15 20:47:30 18° 139° (SE) 20:49:44 437.200
M-CUBED/EXP-1 PRIME 25 May 20:49:27 20:51:31 16° 98° (E) 20:53:34 437.505
CUTE 1.7 + AOD 2 25 May 20:55:19 20:57:02 12° 273° (W) 20:58:47 437.475
AO-73 25 May 20:56:06 21:00:16 61° 259° (W) 21:04:35 145.935
ISS 25 May 21:03:08 21:05:33 19° 139° (SE) 21:08:00 437.550
ZACube-1 25 May 21:09:33 21:13:32 40° 263° (W) 21:17:38 437.345
STRAND 1 25 May 21:12:40 21:17:35 46° 292° (WNW) 21:22:29 437.568
AAUSAT CUBESAT 2 25 May 21:13:46 21:16:58 21° 268° (W) 21:20:10 437.432
CUBEBUG 2 25 May 21:18:35 21:20:39 13° 272° (W) 21:22:44 437.445
PCSat 25 May 21:29:38 21:34:34 34° 318° (NW) 21:39:31 145.827
UWE-3 25 May 21:31:08 21:33:44 16° 271° (W) 21:36:23 435.000/436.395/437.385
UNISAT 6 25 May 21:39:30 21:41:39 13° 88° (E) 21:43:49 437.425
DELFI C3 25 May 21:43:39 21:47:39 78° 258° (WSW) 21:51:40 145.870
EO-88 25 May 22:07:04 22:10:40 55° 260° (W) 22:14:18 145.990 - 145.960
Oscar 11 25 May 22:09:16 22:11:52 15° 271° (W) 22:14:29 .
PRISM 25 May 22:10:44 22:14:15 27° 96° (E) 22:17:44 437.425
ESTCUBE 1 25 May 22:10:58 22:14:13 20° 61° (ENE) 22:17:29 437.505/2401.250
SO-50 25 May 22:15:40 22:18:59 20° 113° (ESE) 22:22:17 436.795
Tancredo 1 25 May 22:19:50 22:22:56 87° 347° (NNW) 22:26:01 437.200
M-CUBED/EXP-1 PRIME 25 May 22:23:06 22:26:12 35° 297° (WNW) 22:29:13 437.505
FO-29 25 May 22:31:12 22:37:14 46° 99° (E) 22:43:58 435.910
ISS 25 May 22:38:25 22:41:43 90° 287° (WNW) 22:45:02 437.550
TIGRISAT 25 May 22:43:01 22:47:27 48° 99° (E) 22:51:57 435.000
LO-87 25 May 22:54:34 22:58:06 74° 75° (ENE) 23:01:39 145.935 - 145.965
VELOX 1 25 May 23:12:15 23:15:37 22° 62° (ENE) 23:19:00 145.980
UNISAT 6 25 May 23:14:19 23:18:55 81° 285° (WNW) 23:23:33 437.425
SPROUT 25 May 23:16:11 23:19:27 22° 63° (ENE) 23:22:44 437.525
PCSat 25 May 23:17:14 23:19:40 13° 342° (NNW) 23:22:07 145.827
QB50P2 25 May 23:23:12 23:24:27 11° 87° (E) 23:25:42 145.880/145.840
PRISM 25 May 23:45:57 23:49:31 30° 294° (WNW) 23:53:05 437.425
ESTCUBE 1 25 May 23:46:10 23:50:37 57° 259° (W) 23:55:08 437.505/2401.250
UKube-1 25 May 23:48:01 23:50:20 14° 58° (ENE) 23:52:38 .
DX 1 25 May 23:52:00 23:55:16 21° 62° (ENE) 23:58:32 434.975-435.025
SO-50 25 May 23:54:29 23:59:01 64° 311° (NW) 00:03:33 436.795
Tancredo 1 25 May 23:55:58 23:58:54 41° 357° (N) 00:01:51 437.200
YUBILEINY 25 May 23:58:18 00:04:14 21° 75° (ENE) 00:10:12 435.215
EO-79 25 May 23:59:00 00:02:28 24° 94° (E) 00:05:56 145.935-145.965
ISS 26 May 00:15:16 00:18:26 43° 357° (N) 00:21:37 437.550
FO-29 26 May 00:16:33 00:22:14 39° 295° (WNW) 00:28:34 435.910
AIST 2D 26 May 00:17:34 00:21:09 77° 101° (E) 00:24:43 435.315
50 SAT 26 May 00:17:45 00:21:02 44° 71° (ENE) 00:24:21 437.505
TIGRISAT 26 May 00:20:18 00:23:53 23° 297° (WNW) 00:27:30 435.000
NANOSAT C BR1 26 May 00:44:34 00:48:48 63° 102° (ESE) 00:53:01 145.865
VELOX 1 26 May 00:47:32 00:51:48 47° 260° (W) 00:56:05 145.980
POLYITAN 1 26 May 00:47:55 00:52:13 75° 104° (ESE) 00:56:29 437.675
SPROUT 26 May 00:51:05 00:55:07 42° 261° (W) 00:59:11 437.525
UNISAT 6 26 May 00:53:04 00:54:54 12° 304° (WNW) 00:56:44 437.425
DUCHIFAT 1 26 May 00:55:56 01:00:11 75° 103° (ESE) 01:04:26 145.980
QB50P2 26 May 00:56:32 01:00:50 83° 283° (WNW) 01:05:06 145.880/145.840
PCSat 26 May 01:04:26 01:05:41 11° 9° (N) 01:06:55 145.827
Oscar 19 26 May 01:05:14 01:07:54 14° 87° (E) 01:10:31 437.125/150
BUGSAT 1 26 May 01:19:02 01:22:58 42° 99° (E) 01:26:55 437.445
UKube-1 26 May 01:21:28 01:25:47 77° 256° (WSW) 01:30:07 .
DX 1 26 May 01:26:57 01:31:09 48° 260° (W) 01:35:24 434.975-435.025
ITUPSAT 1 26 May 01:31:14 01:34:21 18° 58° (ENE) 01:37:28 437.325
Tancredo 1 26 May 01:31:54 01:34:57 63° 17° (NNE) 01:38:00 437.200
EO-79 26 May 01:34:24 01:38:21 38° 291° (WNW) 01:42:17 145.935-145.965
SO-50 26 May 01:37:19 01:40:20 17° 333° (NNW) 01:43:22 436.795
YUBILEINY 26 May 01:50:59 01:59:43 86° 97° (E) 02:08:34 435.215
ISS 26 May 01:51:58 01:55:14 64° 17° (NNE) 01:58:30 437.550
50 SAT 26 May 01:52:17 01:54:08 14° 269° (W) 01:56:01 437.505
AIST 2D 26 May 01:53:16 01:53:48 10° 300° (WNW) 01:54:19 435.315
MOZHAYETS 4 26 May 01:58:00 02:00:54 17° 59° (ENE) 02:03:47
BEESAT 26 May 02:04:10 02:08:23 32° 65° (ENE) 02:12:38 436.000
RS-15 26 May 02:07:42 02:19:01 48° 111° (ESE) 02:30:32 29.354- 29.394
Gurwin Techsat 1B 26 May 02:11:29 02:16:17 33° 96° (E) 02:21:03 435.225
NANOSAT C BR1 26 May 02:21:25 02:24:03 16° 300° (WNW) 02:26:42 145.865
POLYITAN 1 26 May 02:25:09 02:27:26 14° 301° (WNW) 02:29:45 437.675
DUCHIFAT 1 26 May 02:33:04 02:35:19 14° 301° (WNW) 02:37:34 145.980
QB50P2 26 May 02:34:35 02:35:54 11° 303° (WNW) 02:37:13 145.880/145.840
